闪电 1-71星 (MOLNIYA 1-71)

导读

MOLNIYA 1-71(闪电1-71)是独联体(CIS)于1988年3月11日发射的通信卫星,隶属于苏联/俄罗斯“闪电”系列卫星家族。该系列卫星采用标志性的高椭圆闪电轨道设计,能实现对北半球高纬度地区,尤其是北极区域的良好覆盖,主要承担军事通信、民用通信与电视转播任务,服务于苏联及独联体时期的跨区域通信需求,是冷战后期苏东阵营太空通信体系的重要组成部分。

基本信息
目录编号:
18946
目录名称:
MOLNIYA 1-71
国际标识:
1988-017A
轨道中心:
EARTH
卫星名称:
闪电 1-71星
卫星全名:
闪电 1-71星 (MOLNIYA 1-71)
卫星状态:
在轨 (已飞行13972 天)
发射日期:
1988-03-11 UTC
国别 :
俄罗斯(独联体) (CIS)
星等 :
--
轨道信息
数据来源 国际轨道数据 AOE轨道数据
星历时间 2026-06-11T16:00:21+0800
1天前
查看轨道信息
2026-06-06T05:00:00+0800
6天前
查看轨道信息
半长轴 26523.712km 26524.732km
偏心率 0.7316495 0.7319242
轨道倾角 62.086° 62.088°
近地点辐角 268.096° 268.029°
升交点赤经 257.342° 258.172°
平近点角 15.138° 25.742°
近地点 739.514km 732.501km
远地点 39551.636km 39560.689km
周期 716.492分钟 716.533分钟
每日圈数 2.009793 2.009677
详细信息
平衡模式:
三轴稳定
覆盖范围:
全球
运营商:
俄罗斯国家航天集团
运营商所在国:
俄罗斯
制造商(研发单位):
普里克拉德诺伊·梅哈尼基设计局
制造商所在国:
俄罗斯联邦
使用方式:
暂无
卫星简介
闪电(Molniya (Satellite))系列卫星是苏联/俄罗斯于1965年至2004年间发射的军事和通信卫星。这些卫星使用高度偏心的椭圆轨道,称为Molniya轨道(即闪电轨道),在高纬度地区具有较长的停留时间。该卫星状态未知。
2D轨道图
3D轨道图
轨道高度分析图
轨道倾角分析图
轨道综合分析图
查看轨道综合分析图